Regional Weather Roundup
Issued by NWS

Home | Current Version | Previous Version | Text Only | Print | Product List | Glossary Off
Versions: 1 2 3 4 5 6 7 8 9 10 11 12 13 14 15 16 17 18 19 20 21 22 23 24 25 26 27 28 29 30 31 32 33 34 35 36 37 38 39 40 41 42 43 44 45 46 47 48 49 50

000
ASUS45 KTFX 021410
RWRMT
MONTANA REGIONAL WEATHER ROUNDUP
NATIONAL WEATHER SERVICE GREAT FALLS MT
800 AM MDT TUE JUN 02 2015

NOTE: "FAIR" INDICATES FEW OR NO CLOUDS BELOW 12000 FEET WITH NO
SIGNIFICANT WEATHER AND/OR OBSTRUCTIONS TO VISIBILITY.

MTZ001>007-043-021500-
WEST OF THE DIVIDE

CITY           SKY/WX    TMP DP  RH WIND       PRES   REMARKS
KALISPELL      LGT RAIN  54  52  94 S15       29.88S
MISSOULA       CLOUDY    52  51  97 W3        29.94S
BUTTE          CLOUDY    46  42  86 CALM      30.00R
MULLAN PASS    LGT RAIN  40  40 100 W7        29.97S FOG
DEER LODGE       N/A     54  48  82 SE3       30.00S
HAMILTON         N/A     52  48  87 SW8       29.94S
LIBBY            N/A     55  54  94 CALM      29.88S
RONAN            N/A     55  51  86 E2        29.97R
$$

MTZ008-052>055-021500-
SOUTHWEST MONTANA

CITY           SKY/WX    TMP DP  RH WIND       PRES   REMARKS
BOZEMAN        SUNNY     54  45  71 CALM      29.96R
W YELLOWSTONE  CLOUDY    39  39 100 CALM      30.09R FOG
THREE FORKS      N/A     57  22  26 NW1       29.95R
TWIN BRIDGES     N/A     53  43  69 SE8       29.98R
$$

MTZ009-010-012-014-046-048-049-054-021500-
EAST SLOPES AND CENTRAL MONTANA

CITY           SKY/WX    TMP DP  RH WIND       PRES   REMARKS
CUT BANK       HVY RAIN  49  48  97 E17G25    29.92R FOG
GREAT FALLS    CLOUDY    55  52  89 W3        29.87R
MALMSTROM AFB  PTSUNNY   56  53  89 SE2       29.88R
HELENA         MOSUNNY   57  47  69 CALM      29.92R
CONRAD           N/A     52  52 100 NE20      29.93R
$$

MTZ011-013-016-021-045-047-050-051-021500-
NORTH CENTRAL MONTANA

CITY           SKY/WX    TMP DP  RH WIND       PRES   REMARKS
HAVRE          CLOUDY    54  50  86 E8        29.90S
LEWISTOWN      PTSUNNY   53  49  86 E14       29.92R
N BAR RANCH    CLOUDY    50  50 100 NE6       29.96R FOG
CHINOOK          N/A     55  52  88 E6        29.92S
FORT BENTON      N/A     54  50  87 NE10G17   29.91R
$$

MTZ017>020-022>027-061-062-021500-
NORTHEAST MONTANA

CITY           SKY/WX    TMP DP  RH WIND       PRES   REMARKS
GLASGOW        LGT RAIN  54  48  80 NE13      29.89R
JORDAN           N/A     53  52  96 N16       29.85R
SIDNEY         CLOUDY    61  57  88 NE6       29.80R
WOLF POINT     LGT RAIN  57  50  77 NE14G24   29.83S
MALTA            N/A     54  48  80 CALM      29.89S
PLENTYWOOD       N/A     57  46  67 NE20G26   29.83S
POPLAR           N/A     55  52  88 N21G26    29.81R
SCOBEY           N/A     56  41  57 N20       29.85F
$$

MTZ028>42-056>058-021500-
SOUTHCENTRAL AND SOUTHEAST MONTANA

CITY           SKY/WX    TMP DP  RH WIND       PRES   REMARKS
BAKER          PTSUNNY   64  56  75 SW16      29.85R
BILLINGS       MOSUNNY   56  52  86 SW6       29.90F
LIVINGSTON     SUNNY     54  47  77 NW12      29.92R
MILES CITY     CLOUDY    60  58  92 W12       29.83R
BIG TIMBER       N/A     55  45  67 W12       29.93R
EKALAKA          N/A     60  55  83 SW8       29.87S
FORSYTH          N/A     61  61 100 W8        29.85R
LAUREL           N/A     55  43  64 SW2       29.90S
ROUNDUP          N/A     56  51  83 N5        29.83S
$$

REGIONAL REPORTS...DAKOTAS

CITY           SKY/WX    TMP DP  RH WIND       PRES   REMARKS
WILLISTON      LGT RAIN  58  54  86 NE10      29.82R FOG
MINOT          CLOUDY    62  58  86 N10       29.77R
DICKINSON      PTSUNNY   63  57  81 S10       29.78R
BEACH          CLOUDY    61  61 100 S14       29.82S
CROSBY         FAIR      57  48  72 NE18G26   29.85R
WATFORD CITY   PTSUNNY   59  59 100 NE5       29.78R
BISMARCK       PTSUNNY   63  59  87 E7        29.76R
GRAND FORKS    CLOUDY    59  54  83 E10       29.80F
FARGO          CLOUDY    63  52  67 S12       29.88S
BUFFALO SD       N/A     64  56  75 SW6       29.78S
RAPID CITY     MOSUNNY   68  55  63 NW18      29.82S
$$

REGIONAL REPORTS...WYOMING/IDAHO/WASHINGTON

CITY           SKY/WX    TMP DP  RH WIND       PRES   REMARKS
GILLETTE       SUNNY     62  53  72 W3        29.91S
SHERIDAN       SUNNY     59  51  75 CALM      29.91R
BUFFALO WY     MOSUNNY   60  50  69 CALM      29.94S
CODY           PTSUNNY   55  45  67 SE3       29.95S
YELLOWSTONE LA   N/A     38  37  97 W3        30.15R
IDAHO FALLS    PTSUNNY   49  46  90 NW8       30.01R
SALMON         CLOUDY    54  45  71 S7G16     29.99S
BOISE          SUNNY     62  46  55 N5        30.01R
SPOKANE        CLOUDY    54  47  77 S15       29.90R
$$

REGIONAL REPORTS...ALBERTA

CITY           SKY/WX    TMP DP  RH WIND       PRES   REMARKS
CALGARY        CLOUDY    48  43  81 N10       29.96S
LETHBRIDGE     LGT RAIN  55  52  88 N5        29.92R
MEDICINE HAT   CLOUDY    59  45  58 NE5       29.92R
$$

REGIONAL REPORTS...SASKATCHEWAN

CITY           SKY/WX    TMP DP  RH WIND       PRES   REMARKS
SWIFT CURRENT  PTSUNNY   54  46  76 E18G25    29.96S
REGINA         CLOUDY    55  46  71 NE14G21   29.95S
SASKATOON      PTSUNNY   52  36  54 NE14G22   30.06R
$$


USA.gov is the U.S. government's official web portal to all federal, state and local government web resources and services.